Time,TemperatureF,DewpointF,PressureIn,WindDirection,WindDirectionDegrees,WindSpeedMPH,WindSpeedGustMPH,Humidity,HourlyPrecipIn,Conditions,Clouds,dailyrainin,SoftwareType,DateUTC
2017-03-30 00:01:00,40.1,37.4,29.81,ENE,68,19.9,31.1,90,-99.99,,,-99.99,WSDL version 536,2017-03-30 05:01:00,
2017-03-30 00:06:00,40.1,37.4,29.82,ENE,64,23.8,28.4,90,-99.99,,,-99.99,WSDL version 536,2017-03-30 05:06:00,
2017-03-30 00:11:00,40.1,37.7,29.83,ENE,76,20.2,28.4,91,-99.99,,,-99.99,WSDL version 536,2017-03-30 05:11:00,
2017-03-30 00:16:00,40.1,37.7,29.83,ENE,68,21.4,25.7,91,-99.99,,,-99.99,WSDL version 536,2017-03-30 05:16:00,
2017-03-30 00:21:00,40.1,37.7,29.83,ENE,70,19.0,25.7,91,-99.99,,,-99.99,WSDL version 536,2017-03-30 05:21:00,
2017-03-30 00:26:00,40.1,37.7,29.82,East,79,19.1,25.5,91,-99.99,,,-99.99,WSDL version 536,2017-03-30 05:26:00,
2017-03-30 00:31:00,40.1,37.7,29.83,ENE,70,17.7,25.5,91,-99.99,,,-99.99,WSDL version 536,2017-03-30 05:31:00,
2017-03-30 00:36:00,40.2,37.8,29.83,ENE,68,19.2,23.7,91,-99.99,,,-99.99,WSDL version 536,2017-03-30 05:36:00,
2017-03-30 00:41:00,40.3,37.9,29.82,ENE,64,16.3,23.7,91,-99.99,,,-99.99,WSDL version 536,2017-03-30 05:41:00,
2017-03-30 00:46:00,40.1,37.7,29.82,ENE,68,17.4,22.4,91,-99.99,,,-99.99,WSDL version 536,2017-03-30 05:46:00,
2017-03-30 00:51:00,40.1,37.7,29.83,ENE,71,15.7,23.0,91,-99.99,,,-99.99,WSDL version 536,2017-03-30 05:51:00,
2017-03-30 00:56:00,40.3,37.9,29.83,ENE,65,12.7,23.0,91,-99.99,,,-99.99,WSDL version 536,2017-03-30 05:56:00,
2017-03-30 01:01:00,40.1,37.7,29.83,ENE,68,13.5,21.0,91,-99.99,,,-99.99,WSDL version 536,2017-03-30 06:01:00,
2017-03-30 01:06:00,40.1,37.7,29.82,ENE,63,12.2,19.7,91,-99.99,,,-99.99,WSDL version 536,2017-03-30 06:06:00,
2017-03-30 01:11:00,40.1,37.7,29.81,ENE,68,15.5,20.8,91,-99.99,,,-99.99,WSDL version 536,2017-03-30 06:11:00,
2017-03-30 01:16:00,40.1,37.7,29.81,ENE,68,17.5,23.0,91,-99.99,,,-99.99,WSDL version 536,2017-03-30 06:16:00,
2017-03-30 01:21:00,40.1,37.5,29.80,ENE,73,19.0,26.2,90,-99.99,,,-99.99,WSDL version 536,2017-03-30 06:21:00,
2017-03-30 01:26:00,40.1,37.4,29.80,ENE,70,19.6,26.2,90,-99.99,,,-99.99,WSDL version 536,2017-03-30 06:26:00,
2017-03-30 01:31:00,40.1,37.4,29.79,ENE,73,18.4,25.9,90,-99.99,,,-99.99,WSDL version 536,2017-03-30 06:31:00,
2017-03-30 01:36:00,40.1,37.4,29.79,ENE,64,18.7,26.2,90,-99.99,,,-99.99,WSDL version 536,2017-03-30 06:36:00,
2017-03-30 01:46:00,40.3,37.6,29.78,ENE,73,21.3,27.1,90,-99.99,,,-99.99,WSDL version 536,2017-03-30 06:46:00,
2017-03-30 01:51:00,40.3,37.6,29.78,ENE,70,19.0,27.1,90,-99.99,,,-99.99,WSDL version 536,2017-03-30 06:51:00,
2017-03-30 01:56:00,40.3,37.6,29.78,ENE,73,21.2,27.1,90,-99.99,,,-99.99,WSDL version 536,2017-03-30 06:56:00,
2017-03-30 02:01:00,40.3,37.6,29.77,ENE,73,18.8,27.1,90,-99.99,,,-99.99,WSDL version 536,2017-03-30 07:01:00,
2017-03-30 02:06:00,40.3,37.6,29.76,ENE,78,22.5,27.3,90,-99.99,,,-99.99,WSDL version 536,2017-03-30 07:06:00,
2017-03-30 02:11:00,40.5,37.8,29.75,ENE,76,23.5,30.9,90,-99.99,,,-99.99,WSDL version 536,2017-03-30 07:11:00,
2017-03-30 02:16:00,40.5,37.8,29.75,ENE,70,23.1,30.9,90,-99.99,,,-99.99,WSDL version 536,2017-03-30 07:16:00,
2017-03-30 02:21:00,40.5,37.6,29.75,ENE,73,19.9,30.6,90,-99.99,,,-99.99,WSDL version 536,2017-03-30 07:21:00,
2017-03-30 02:26:00,40.5,37.4,29.74,East,84,22.1,27.7,89,-99.99,,,-99.99,WSDL version 536,2017-03-30 07:26:00,
2017-03-30 02:31:00,40.5,37.4,29.75,East,79,20.9,27.7,89,-99.99,,,-99.99,WSDL version 536,2017-03-30 07:31:00,
2017-03-30 02:36:00,40.5,37.4,29.74,East,82,20.4,27.7,89,-99.99,,,-99.99,WSDL version 536,2017-03-30 07:36:00,
2017-03-30 02:41:00,40.5,37.4,29.73,East,84,23.2,31.1,89,-99.99,,,-99.99,WSDL version 536,2017-03-30 07:41:00,
2017-03-30 02:46:00,40.5,37.4,29.73,East,84,19.1,31.1,89,-99.99,,,-99.99,WSDL version 536,2017-03-30 07:46:00,
2017-03-30 02:51:00,40.5,37.4,29.73,East,85,20.9,26.4,89,-99.99,,,-99.99,WSDL version 536,2017-03-30 07:51:00,
2017-03-30 02:56:00,40.6,37.6,29.73,ENE,78,22.6,29.8,89,-99.99,,,-99.99,WSDL version 536,2017-03-30 07:56:00,
2017-03-30 03:01:00,40.6,37.6,29.72,East,84,20.5,29.8,89,-99.99,,,-99.99,WSDL version 536,2017-03-30 08:01:00,
2017-03-30 03:06:00,40.5,37.5,29.71,ENE,78,20.2,27.3,89,-99.99,,,-99.99,WSDL version 536,2017-03-30 08:06:00,
2017-03-30 03:11:00,40.5,37.4,29.70,ENE,70,23.3,27.5,89,-99.99,,,-99.99,WSDL version 536,2017-03-30 08:11:00,
2017-03-30 03:16:00,40.5,37.4,29.70,ENE,70,20.1,27.5,89,-99.99,,,-99.99,WSDL version 536,2017-03-30 08:16:00,
2017-03-30 03:21:00,40.5,37.8,29.70,ENE,68,22.0,27.3,90,-99.99,,,-99.99,WSDL version 536,2017-03-30 08:21:00,
2017-03-30 03:26:00,40.5,37.8,29.70,ENE,76,21.6,28.0,90,-99.99,,,-99.99,WSDL version 536,2017-03-30 08:26:00,
2017-03-30 03:31:00,40.5,37.8,29.70,ENE,73,20.2,28.0,90,-99.99,,,-99.99,WSDL version 536,2017-03-30 08:31:00,
2017-03-30 03:36:00,40.5,37.8,29.70,ENE,77,19.1,26.4,90,-99.99,,,-99.99,WSDL version 536,2017-03-30 08:36:00,
2017-03-30 03:41:00,40.5,37.8,29.70,East,83,21.5,27.7,90,-99.99,,,-99.99,WSDL version 536,2017-03-30 08:41:00,
2017-03-30 03:46:00,40.6,37.9,29.70,ENE,76,17.7,27.7,90,-99.99,,,-99.99,WSDL version 536,2017-03-30 08:46:00,
2017-03-30 03:51:00,40.6,37.9,29.69,ENE,75,19.9,25.1,90,-99.99,,,-99.99,WSDL version 536,2017-03-30 08:51:00,
2017-03-30 03:56:00,40.6,37.9,29.69,East,87,18.3,25.1,90,-99.99,,,-99.99,WSDL version 536,2017-03-30 08:56:00,
2017-03-30 04:01:00,40.6,37.9,29.69,East,85,18.9,26.6,90,-99.99,,,-99.99,WSDL version 536,2017-03-30 09:01:00,
2017-03-30 04:06:00,40.7,38.0,29.68,East,80,18.7,26.6,90,-99.99,,,-99.99,WSDL version 536,2017-03-30 09:06:00,
2017-03-30 04:11:00,40.7,38.0,29.68,East,80,16.6,25.3,90,-99.99,,,-99.99,WSDL version 536,2017-03-30 09:11:00,
2017-03-30 04:16:00,40.8,38.1,29.69,ENE,75,19.2,24.2,90,-99.99,,,-99.99,WSDL version 536,2017-03-30 09:16:00,
2017-03-30 04:21:00,40.8,38.1,29.70,ENE,71,14.3,24.2,90,-99.99,,,-99.99,WSDL version 536,2017-03-30 09:21:00,
2017-03-30 04:26:00,40.8,38.1,29.70,ENE,75,15.9,19.2,90,-99.99,,,-99.99,WSDL version 536,2017-03-30 09:26:00,
2017-03-30 04:31:00,40.9,38.2,29.70,ENE,76,15.5,19.2,90,-99.99,,,-99.99,WSDL version 536,2017-03-30 09:31:00,
2017-03-30 04:36:00,41.0,38.3,29.70,ENE,75,14.7,20.8,90,-99.99,,,-99.99,WSDL version 536,2017-03-30 09:36:00,
2017-03-30 04:41:00,40.8,38.1,29.69,ENE,75,14.0,20.8,90,-99.99,,,-99.99,WSDL version 536,2017-03-30 09:41:00,
2017-03-30 04:46:00,40.8,38.1,29.69,East,79,15.3,22.8,90,-99.99,,,-99.99,WSDL version 536,2017-03-30 09:46:00,
2017-03-30 04:51:00,40.8,38.1,29.69,East,85,15.2,22.8,90,-99.99,,,-99.99,WSDL version 536,2017-03-30 09:51:00,
2017-03-30 04:56:00,40.8,38.1,29.68,ENE,73,14.5,20.4,90,-99.99,,,-99.99,WSDL version 536,2017-03-30 09:56:00,
2017-03-30 05:01:00,40.8,38.1,29.69,ENE,73,14.4,19.9,90,-99.99,,,-99.99,WSDL version 536,2017-03-30 10:01:00,
2017-03-30 05:06:00,40.6,37.9,29.68,East,84,14.2,19.2,90,-99.99,,,-99.99,WSDL version 536,2017-03-30 10:06:00,
2017-03-30 05:11:00,40.6,37.9,29.69,ENE,78,13.2,17.7,90,-99.99,,,-99.99,WSDL version 536,2017-03-30 10:11:00,
2017-03-30 05:16:00,40.6,37.9,29.69,East,83,11.4,17.4,90,-99.99,,,-99.99,WSDL version 536,2017-03-30 10:16:00,
2017-03-30 05:21:00,40.5,37.8,29.68,East,82,12.5,17.0,90,-99.99,,,-99.99,WSDL version 536,2017-03-30 10:21:00,